User: anonymous
Location: UBC Liquid-Mirror Observatory
(49.2876°N, 122.5728°W)
Time: 20:05:54
(UTC-07:00)
Language:

Cosmos 1315 - Orbit

View from above orbital plane
View from above orbital plane
View from above satellite
View from above satellite

Ground track
Ground track

The orbit data is extracted from the following two-line orbital elements,

1 12903U 81103A   14206.76620542  .00010210  00000-0  18706-3 0  2243
2 12903 081.1354 102.3985 0005480 129.7070 286.4023 15.49148111796282
Epoch (UTC): 25 July 2014 18:23:20
Eccentricity: 0.0005480
inclination: 81.1354°
perigee height: 415 km
apogee height: 423 km
right ascension of ascending node: 102.3985°
argument of perigee: 129.7070°
revolutions per day: 15.49148111
mean anomaly at epoch: 286.4023°
orbit number at epoch: 79628

The dashed part of the orbit path shows where the satellite is in the earth's shadow,  

DLR